Starlink 11253

operational
NORAD ID: 60935 Int'l Des: 2024-155 Owner: SPXS Country: US Constellation: starlink
LEOCIRCULAR

Starlink 11253について

説明を読み込み中...

リアルタイム位置

3D地球を読み込み中...

次回通過

高度履歴

Altitude vs Time

uPlot chart will show altitude changes over time

軌道要素

1 60935U 24155M 25353.24592892 -.00002433 00000-0 -15241-4 0 9990
2 60935 53.1593 18.1122 0001297 120.4226 239.6920 15.69690983 75764
Epoch: Dec 19, 2025 • Age: 13 hours

現在のステータス

高度 359.5 km
速度 7.70 km/s
衛星直下点 6.96°N, 178.81°E
打ち上げ日 Aug 31, 2024
運用期間 1.3 years
タイプ internet

技術仕様

分類 Payload
質量 960.00 kg
乾燥質量 910.00 kg
総質量 960.00 kg
長さ 0.30 m
直径 4.10 m
スパン 29.00 m
形状 Box + pan
製造者 SPXS
バスタイプ Starlink V2MD
フェーズステータス In Orbit
所有者/国 SPXS/US

大規模コンステレーション

Loading constellations...